Regional Weather Roundup
Issued by NWS

Home | Current Version | Previous Version | Text Only | Print | Product List | Glossary On
Versions: 1 2 3 4 5 6 7 8 9 10 11 12 13 14 15 16 17 18 19 20 21 22 23 24 25 26 27
000
ASUS46 KPQR 292310
RWROR

OREGON REGIONAL WEATHER ROUNDUP
NATIONAL WEATHER SERVICE PORTLAND OR
400 PM PDT WED MAR 29 2017

NOTE: "FAIR" INDICATES FEW OR NO CLOUDS BELOW 12,000 FEET WITH
NO SIGNIFICANT WEATHER AND/OR OBSTRUCTIONS TO VISIBILITY.

ORZ001>013-300000-
NORTHWEST OREGON


CITY           SKY/WX    TMP DP  RH WIND       PRES   REMARKS
ASTORIA        LGT RAIN  50  46  86 W13       30.01R
NEWPORT        CLOUDY    50  50 100 W10       30.10S FOG
PORTLAND       PTSUNNY   55  50  83 S14       30.00F
VANCOUVER WA   CLOUDY    56  53  90 S8        29.99F
SCAPPOOSE      LGT RAIN  57  55  93 S8        29.97S
HILLSBORO      PTSUNNY   58  49  72 S16       29.97F
AURORA         LGT RAIN  54  50  86 S15G23    30.02S FOG
MCMINNVILLE    PTSUNNY   59  49  69 W16       30.01S
SALEM          LGT RAIN  54  51  90 S16       30.02S FOG
CORVALLIS      CLOUDY    55  52  88 S7        30.05S
EUGENE         CLOUDY    54  51  90 S14       30.07F
$$

ORZ021-028-300000-
SOUTHWEST OREGON


CITY           SKY/WX    TMP DP  RH WIND       PRES   REMARKS
NORTH BEND     CLOUDY    54  52  94 SW14G21   30.12S
BROOKINGS      RAIN      49  49 100 SE8       30.18F FOG
ROSEBURG       LGT RAIN  54  50  86 S3        30.10F
SEXTON SUMMIT  FOG       41  40  96 S9        30.10F VSB<1/4
MEDFORD        LGT RAIN  51  47  86 N7        30.15S FOG
$$

ORZ014>016-041-300000-
COLUMBIA GORGE


CITY           SKY/WX    TMP DP  RH WIND       PRES   REMARKS
TROUTDALE      CLOUDY    57  51  80 SW15G22   30.00S
THE DALLES     PTSUNNY   60  51  72 NE5       29.90F
$$

ORZ029>031-041-044-049-050-061>064-502-503-505>511-300000-
EASTERN OREGON


CITY           SKY/WX    TMP DP  RH WIND       PRES   REMARKS
REDMOND        CLOUDY    54  40  59 SW8       30.00F
BEND           CLOUDY    50  37  62 SW18G26   30.03S
PRINEVILLE     LGT RAIN  48  46  93 CALM      30.03R
KLAMATH FALLS  CLOUDY    50  50 100 W3        30.11F
LAKEVIEW       CLOUDY    48  43  81 SW14G21   30.14R
HERMISTON      CLOUDY    57  50  77 CALM      29.92R
PENDLETON      CLOUDY    54  51  90 NE6       29.91F
JOHN DAY       RAIN      51  48  92 NW5       29.99F
MEACHAM        CLOUDY    48  43  82 MISG      29.95S
LA GRANDE      CLOUDY    48  41  76 S8G16     29.98S
BAKER CITY     LGT RAIN  48  44  86 E16       29.99F
BURNS          LGT RAIN  50  46  86 SW10      30.03F
ROME             N/A     62  37  39 SW24G33   30.03F
ONTARIO        LGT RAIN  52  46  80 N13       30.05S
$$




USA.gov is the U.S. government's official web portal to all federal, state and local government web resources and services.